www.pogodaiklimat.ru

Погода и климат >> Архив погоды >> Россия >> Нижегородская область >> Нижний Новгород


АРХИВ ПОГОДЫ в Нижнем Новгороде

Время (UTC), дата Ветер
(напр.,м/с)
 
Видим.   Явления Облачность Т
(С)
Тd
(С)
f
(%)
Тe
(С)
Тes
(С)
Комфортность P
(гПа)
Po
(гПа)
Тmin
(С)
Tmax
(С)
R
(мм)
R24
(мм)
S
(см)
03 14.10 Ю 1-2
{4}
10 км {дождь} 9/9 600 м
[Sc diur, vesp]
+7.4 +7.0 97 +6 +6 тепло 1004.2 985.2 +7.4 3
06 14.10 Ю 2-5
{5}
10 км {дождь} 8/8 600 м
[Sc diur, vesp]
+8.4 +6.2 86 +6 +7 тепло 1004.4 985.5
09 14.10 ЮЗ 2-6
{7}
10 км 9/9 600 м
[Sc]
+10.2 +5.6 73 +9 +9 тепло 1004.6 985.8
12 14.10 Ю 1-6
{6}
10 км 10/10 600 м
[Sc]
+10.4 +3.8 64 +10 +10 тепло 1004.5 985.7
15 14.10 Ю 2-6
{6}
10 км 10/10 600 м
[Sc]
+9.4 +4.0 69 +8 +8 тепло 1004.7 985.8 +10.6
18 14.10 ЮВ 1-3
{6}
10 км 10/10 600 м
[Sc]
+8.6 +4.0 73 +8 +8 тепло 1004.3 985.4
21 14.10 ЮВ 1-2
{4}
10 км 10/10 600 м
[Sc]
+8.0 +4.3 77 +7 +7 тепло 1003.5 984.5
00 15.10 штиль 0
{2}
10 км 10/10 600 м
[Sc]
+7.5 +5.3 86 +7 +7 тепло 1002.5 983.5
03 15.10 штиль 0
{1}
10 км {дождь} 10/10 300 м
[Frnb]
+7.0 +6.4 96 +6 +6 тепло 1000.9 982.0 +7.0 0.0
06 15.10 З 1-2
{3}
4000 м слабый дождь 10/10 200 м
[Frnb]
+7.2 +6.5 95 +6 +6 тепло 999.2 980.3
09 15.10 З 1-3
{3}
10 км {дождь} 10/10 300 м
[Sc diur, vesp]
+8.0 +5.8 86 +7 +7 тепло 997.4 978.6
12 15.10 З 1-2
{3}
4000 м слабый дождь 10/10 300 м
[Frnb]
+7.1 +6.2 94 +6 +6 по сезону 996.5 977.6
15 15.10 З 1-5
{5}
4000 м слабый дождь 10/10 300 м
[Frnb]
+6.6 +5.9 95 +5 +5 по сезону 996.6 977.7 +8.0 3
18 15.10 СЗ 2-5
{6}
10 км слабый дождь 10/10 300 м
[Sc diur, vesp]
+5.8 +4.9 94 +3 +3 по сезону 997.1 978.1
21 15.10 З 1-1
{6}
10 км слабый дождь 10/10 300 м
[Sc diur, vesp]
+5.2 +5.0 99 +4 +4 по сезону 998.1 979.1
00 16.10 СЗ 1-3
{4}
10 км слабый дождь 10/10 300 м
[Sc diur, vesp]
+5.6 +5.1 97 +4 +4 по сезону 998.5 979.5
03 16.10 СВ 1-3
{4}
4000 м в посл. час дождь 10/10 300 м
[Sc diur, vesp]
+5.6 +5.1 97 +4 +4 по сезону 1000.5 981.5 +5.2 6
06 16.10 СВ 1-4
{5}
4000 м дымка {морось} 10/10 200 м
[St]
+5.6 +5.1 97 +4 +4 по сезону 1003.0 984.0
09 16.10 С 3-8
{8}
10 км 9/9 300 м
[Cb cap]
+6.4 +3.6 82 +3 +4 по сезону 1005.9 986.9
12 16.10 С 2-6
{8}
10 км {ливн. осадки} 9/9 600 м
[Cb cap]
+7.5 +3.0 73 +6 +6 по сезону 1007.9 988.8
15 16.10 С 1-2
{6}
10 км 6/6 600 м
[Sc diur, vesp]
+5.9 +3.5 85 +5 +5 по сезону 1010.0 990.8 +8.2 0.6
18 16.10 С 1-2
{3}
10 км 9/3 600 м
[Sc diur, vesp Ac trans]
+6.5 +5.1 91 +5 +5 по сезону 1010.6 991.5
21 16.10 З 1-2
{3}
10 км 8/8 200 м
[St]
+5.6 +4.9 95 +4 +4 по сезону 1010.3 991.1
00 17.10 З 1-2
{4}
10 км туман ?/? +5.0 +4.5 97 +4 +4 по сезону 1009.8 990.6
03 17.10 З 1-2
{4}
4000 м дымка {туман} 8/8 300 м
[St]
+5.5 +4.3 92 +4 +4 по сезону 1008.7 989.5 +5.0
06 17.10 ЮЗ 2-6
{6}
10 км {туман} 9/6 1000 м
[Sc Ac As]
+4.9 +2.7 86 +2 +2 по сезону 1007.3 988.1 +4.9
09 17.10 З 1-4
{6}
2600 м слабый дождь 10/10 200 м
[Frnb]
+4.6 +3.9 95 +3 +3 по сезону 1006.2 987.1
12 17.10 З 1-4
{7}
10 км {дождь} 8/6 300 м
[Sc Ci fib]
+6.4 +5.5 94 +5 +6 по сезону 1006.6 987.4
15 17.10 З 1-2
{4}
10 км 3/3 300 м
[St]
+6.4 +5.5 94 +5 +5 по сезону 1008.1 988.8 +7.4
18 17.10 СЗ 1-2
{4}
10 км ясно +5.7 +2.5 80 +5 +5 по сезону 1008.8 989.6
21 17.10 штиль 0
{3}
10 км ясно +4.4 +1.3 80 +4 +4 по сезону 1009.5 990.3
00 18.10 З 1-2
{4}
10 км 8/8 300 м
[St Ci fib]
+4.3 +0.9 79 +3 +3 по сезону 1009.0 989.7
03 18.10 ЮЗ 2-4
{6}
10 км 10/5 300 м
[St Ci fib]
+4.7 +2.2 84 +2 +2 по сезону 1007.3 988.1 +4.2
06 18.10 Ю 2-7
{8}
10 км 10/10 300 м
[Frnb]
+6.0 +0.9 70 +4 +4 по сезону 1004.1 985.0
09 18.10 ЮЗ 2-7
{10}
10 км 10/10 300 м
[St]
+6.8 +5.2 90 +4 +4 по сезону 1001.9 982.9
12 18.10 ЮЗ 1-6
{7}
10 км 9/8 600 м
[Sc Ac trans]
+9.9 +7.6 86 +9 +10 тепло 1000.1 981.4
15 18.10 ЮЗ 2-7
{7}
10 км в посл. час ливневой дождь 9/4 600 м
[Cb cap Ac trans]
+10.6 +8.8 89 +9 +9 тепло 999.5 980.9 +11.1 0.6
18 18.10 З 2-5
{10}
10 км {ливн. осадки} 9/9 600 м
[Cb cap]
+10.2 +8.1 87 +9 +9 тепло 999.9 981.2
21 18.10 З 3-7
{9}
10 км 9/9 600 м
[Sc diur, vesp]
+10.4 +7.4 82 +8 +8 тепло 999.2 980.6
00 19.10 З 3-10
{11}
10 км 9/9 600 м
[Sc]
+10.3 +6.4 77 +8 +8 тепло 999.6 980.9
03 19.10 СЗ 4-11
{13}
10 км 6/6 300 м
[St]
+6.3 +0.7 67 +3 +3 по сезону 1003.4 984.3 +6.3 0.0
06 19.10 З 2-8
{12}
10 км {ливн. осадки} 9/9 600 м
[Sc diur, vesp]
+6.1 +0.8 69 +4 +4 по сезону 1005.6 986.5 +5.1
09 19.10 З 4-8
{11}
10 км в посл. час ливневой дождь 10/10 600 м
[Sc diur, vesp]
+6.5 +1.2 69 +3 +3 по сезону 1007.6 988.5
12 19.10 З 2-6
{11}
10 км в посл. час ливневой дождь 9/8 600 м
[Cb cap Ac trans]
+6.7 +0.6 65 +5 +5 по сезону 1009.4 990.3
15 19.10 З 2-7
{10}
10 км {ливн. осадки} 5/4 600 м
[Sc diur, vesp Ac trans]
+6.0 +0.6 68 +4 +4 по сезону 1011.1 991.9 +8.2 0.0
18 19.10 З 2-5
{7}
10 км 9/9 600 м
[Sc]
+4.9 +1.6 79 +2 +2 по сезону 1012.1 992.8
21 19.10 З 2-4
{7}
10 км 9/9 600 м
[Sc]
+4.3 +1.8 84 +2 +2 по сезону 1012.9 993.5
00 20.10 З 1-4
{7}
10 км 9/9 600 м
[Sc]
+3.4 +1.3 86 +2 +2 по сезону 1013.9 994.4
03 20.10 З 1-3
{5}
10 км 10/10 600 м
[Sc]
+3.1 +1.0 86 +2 +2 по сезону 1015.0 995.5 +3.1
06 20.10 СЗ 2-5
{7}
10 км слабый дождь 10/10 300 м
[Frnb]
+2.9 +0.2 82 -0 -0 по сезону 1016.5 997.0 +2.9
09 20.10 СЗ 1-2
{5}
10 км {снег, дождь} 9/8 300 м
[St Ci fib]
+3.5 -0.3 76 +2 +3 по сезону 1017.7 998.1
12 20.10 СЗ 1-3
{4}
10 км в посл. час дождь {снег} 10/10 300 м
[Frnb]
+2.8 +1.5 91 +1 +1 по сезону 1018.2 998.6
15 20.10 СЗ 1-1
{7}
4000 м в посл. час ливневой снег {дождь} 10/10 300 м
[Frnb]
+0.3 0.0 98 -2 -2 прохладно 1018.7 998.8 +4.3 1
18 20.10 З 1-2
{3}
10 км {ливн. осадки, дождь} 10/5 600 м
[Sc Ac trans Ci fib]
+1.0 -0.1 92 -1 -1 по сезону 1018.6 998.9
21 20.10 СЗ 1-2
{4}
10 км 10/10 300 м
[Frnb]
+0.5 -0.3 94 -2 -2 прохладно 1018.4 998.7
00 21.10 З 1-2
{4}
10 км 8/8 300 м
[St]
-0.6 -1.5 94 -3 -3 прохладно 1018.3 998.4

 

Местоположение метеостанции Нижний Новгород (Нижегородская область, Россия): широта 56.27 долгота 44.00 высота над уровнем моря 157 м.

В архиве по умолчанию представлена погода в Нижнем Новгороде за последнюю неделю. Архивные данные за месяц целиком и за предыдущие месяцы, начиная с января 2011 года, Вы можете получить, выбрав интересующий диапазон дат из раскрывающегося списка и нажав кнопку "Ввод!".

Внимание! Время в таблицах - всемирное. Для получения местного времени необходимо прибавить поправку, которая в Нижнем Новгороде равна 3 ч.

Смотрите также архив погоды в соседних городах и на ближайших метеорологических станциях:

Погода в Нижнем Новгороде аэропорт (Нижегородская область, Россия) (15 км)
Погода в Дальнем Константиново (Нижегородская область, Россия) (53 км)
Погода в Волжской ГМО (Нижегородская область, Россия) (57 км)
Погода в Семенове (Нижегородская область, Россия) (60 км)
Погода в Павлово (Нижегородская область, Россия) (70 км)
Погода в Лысково (Нижегородская область, Россия) (70 км)
Погода в Арзамасе (Нижегородская область, Россия) (101 км)
Погода в Воскресенском (Нижегородская область, Россия) (106 км)
Погода в Вязниках (Владимирская область, Россия) (113 км)
Погода в Красных Баках (Нижегородская область, Россия) (119 км)

Пояснения к столбцам:

Ветер - указаны скорость ветра в м/с - средняя за 10 мин, порывы в срок и между сроками (в фигурных скобках) и направление, откуда дует ветер: С - северный, СВ - северо-восточный, В - восточный, ЮВ - юго-восточный, Ю - южный, ЮЗ - юго-западный, З - западный, СЗ - северо-западный.
Видимость - горизонтальная дальность видимости в метрах или километрах. При видимости от 1 до 10 км при отсутствии осадков обычно наблюдается дымка, при ухудшении видимости до 1 км и менее - туман. В сухую погоду видимость может ухудшаться дымом, пылью или мглою.
Явления - указаны атмосферные явления, наблюдавшиеся в срок или в последний час перед сроком; фигурными скобками обозначены явления, наблюдавшиеся между сроками (за 1-3 часа до срока); квадратными скобками обозначены град или гололедные отложения с указанием их диаметра в мм.
Облачность - указаны через наклонную черту общая и нижняя облачность в баллах и высота нижней границы облаков в метрах; квадратными скобками обозначены формы облаков: Ci - перистые, Cs - перисто-слоистые, Cc - перисто-кучевые, Ac - высококучевые, As - высокослоистые, Sc - слоисто-кучевые, Ns - слоисто-дождевые, Cu - кучевые, Cb - кучево-дождевые. Подробнее классификацию облаков см. в Атласе облаков (PDF).
T - Температура воздуха - температура, измеренная на высоте 2 м над землей.
Td - Температура точки росы - температура, при понижении до которой содержащийся в воздухе водяной пар достигнет насыщения.
f - Относительная влажность воздуха - влажноcть воздуха, измеренная на высоте 2 м над землей.
Te - Эффективная температура - температура, которую ощущает одетый по сезону человек в тени. Характеристика душности погоды. При расчете учитывается влияние влажности воздуха и скорости ветра на теплоощущения человека.
Tes - Эффективная температура на солнце - температура, которую ощущает человек, с поправкой на солнечный нагрев. Характеристика знойности погоды. Зависит от высоты солнца над горизонтом, облачности и скорости ветра. Ночью, в пасмурную погоду, а также при ветре 12 м/с и более поправка равна нулю.
P - Атмосферное давление - приведенное к уровню моря атмосферное давление.
Po - Атмосферное давление - измеренное на уровне метеостанции атмосферное давление.
Tmin - Минимальная температура - минимум температуры воздуха на высоте 2 м над землей.
Tmax - Максимальная температура - максимум температуры воздуха на высоте 2 м над землей.
R - Количество осадков - Количество выпавших осадков за период времени, мм. При наведении курсора мыши на число - период времени, за который выпало указанное количество осадков.
R24 - Количество осадков - Количество выпавших осадков за 24 часа, мм.
S - Снежный покров - Высота снежного покрова, см. При наведении курсора мыши на число - состояние снежного покрова и степень покрытия местности в баллах.